KD8UGJ Weather Reports


time (UTC)temp
C
wind
direction
speed
KPH
gust
KPH
rain 1hr
cm
rain 24hr
cm
rain mn
cm
humidity
%
barometer
mb
20260508184523 11 236 8.0 17.7 0.08 0.28 0.23 89 1011.8
20260508183020 11 360 6.4 19.3 0.03 0.23 0.18 87 1012.1
20260508181518 12 360 8.0 17.7 0.00 0.20 0.15 84 1012.1
20260508180017 12 360 4.8 20.9 0.00 0.20 0.15 81 1012.1
20260508174518 13 190 6.4 25.7 0.03 0.20 0.15 80 1011.9
20260508173014 13 360 9.7 17.7 0.05 0.20 0.15 81 1012.0
20260508171510 12 360 9.7 17.7 0.05 0.20 0.15 83 1012.3
20260508170009 11 158 4.8 14.5 0.05 0.20 0.15 85 1012.6
20260508164508 11 360 4.8 16.1 0.03 0.18 0.13 82 1012.9
20260508163014 11 252 4.8 17.7 0.00 0.15 0.10 80 1013.0
20260508161507 11 262 8.0 19.3 0.00 0.15 0.10 79 1013.3
20260508160007 11 252 9.7 19.3 0.00 0.15 0.10 78 1013.1
20260508154507 11 260 4.8 20.9 0.00 0.15 0.10 78 1013.2
20260508153016 11 280 8.0 17.7 0.00 0.15 0.10 77 1013.0
20260508151505 12 234 9.7 25.7 0.00 0.15 0.10 76 1012.9
20260508150006 12 263 11.3 24.1 0.00 0.15 0.10 77 1013.0
20260508144503 12 240 9.7 17.7 0.00 0.15 0.10 79 1013.0
20260508143118 11 266 12.9 24.1 0.00 0.15 0.10 78 1013.1
20260508141606 11 236 12.9 20.9 0.00 0.15 0.10 77 1013.1
20260508140118 11 284 8.0 24.1 0.00 0.15 0.10 77 1013.1
20260508134557 11 244 9.7 20.9 0.00 0.15 0.10 77 1013.2
20260508133103 11 360 12.9 25.7 0.00 0.15 0.10 76 1013.1
20260508131556 11 257 14.5 24.1 0.00 0.15 0.10 75 1013.3
20260508130054 11 280 9.7 16.1 0.00 0.15 0.10 77 1013.3
20260508124549 10 360 9.7 20.9 0.00 0.15 0.10 78 1013.1
20260508123049 9 242 8.0 16.1 0.00 0.15 0.10 80 1013.3
20260508121547 8 265 8.0 14.5 0.00 0.15 0.10 80 1013.2
20260508120042 8 360 8.0 17.7 0.00 0.15 0.10 80 1013.2
20260508114539 8 269 6.4 16.1 0.00 0.15 0.10 82 1013.0
20260508113039 7 360 4.8 12.9 0.00 0.15 0.10 84 1012.7
20260508111540 7 242 3.2 14.5 0.00 0.15 0.10 85 1012.5
20260508110036 6 360 3.2 9.7 0.00 0.15 0.10 86 1012.4
20260508104534 6 233 4.8 12.9 0.00 0.15 0.10 88 1012.5
20260508103043 6 360 3.2 6.4 0.00 0.15 0.10 89 1012.3
20260508101532 6 192 1.6 4.8 0.00 0.15 0.10 89 1012.3
20260508100041 6 179 3.2 8.0 0.00 0.15 0.10 89 1012.3
20260508094527 6 171 3.2 6.4 0.03 0.15 0.10 88 1012.5
20260508093033 7 173 4.8 11.3 0.03 0.15 0.10 88 1012.6
20260508091526 7 182 4.8 12.9 0.03 0.15 0.10 88 1012.4
20260508090026 7 360 8.0 16.1 0.03 0.15 0.10 87 1012.4
20260508084522 7 159 6.4 11.3 0.00 0.13 0.08 87 1012.5
20260508083021 7 360 3.2 12.9 0.00 0.13 0.08 88 1012.6
20260508081520 7 148 6.4 9.7 0.00 0.13 0.08 87 1012.7
20260508080017 7 360 3.2 9.7 0.00 0.13 0.08 86 1012.7
20260508074517 7 360 3.2 8.0 0.05 0.13 0.08 86 1012.7
20260508073017 7 360 4.8 12.9 0.05 0.13 0.08 86 1012.8
20260508071516 7 360 4.8 14.5 0.05 0.13 0.08 87 1013.0
20260508070015 7 360 8.0 17.7 0.05 0.13 0.08 88 1012.8
20260508064512 7 230 3.2 8.0 0.00 0.08 0.03 88 1013.0
20260508063011 7 360 3.2 17.7 0.00 0.08 0.03 88 1013.1
20260508061508 7 360 6.4 14.5 0.00 0.08 0.03 88 1013.2
20260508060006 7 188 3.2 14.5 0.03 0.08 0.03 87 1013.4
20260508054510 7 360 4.8 12.9 0.05 0.08 0.03 87 1013.4
20260508053003 7 360 3.2 14.5 0.05 0.08 0.03 86 1013.4
20260508051600 7 360 6.4 9.7 0.08 0.08 0.03 85 1013.9
20260508050059 8 263 6.4 16.1 0.05 0.05 0.00 84 1014.5
20260508044558 8 276 4.8 9.7 0.03 0.03 0.03 82 1014.5
20260508043100 8 249 1.6 11.3 0.03 0.03 0.03 81 1014.2
20260508041556 8 360 6.4 14.5 0.00 0.00 0.00 78 1014.0
20260508040056 8 180 1.6 4.8 0.00 0.00 0.00 79 1013.5
20260508034556 8 179 1.6 9.7 0.00 0.00 0.00 79 1013.5
20260508033055 8 162 4.8 9.7 0.00 0.00 0.00 80 1013.6
20260508031559 8 171 1.6 3.2 0.00 0.00 0.00 79 1013.8
20260508024607 8 173 1.6 6.4 0.00 0.00 0.00 77 1014.0
20260508023053 9 360 0.0 4.8 0.00 0.00 0.00 76 1014.1
20260508021553 9 360 1.6 4.8 0.00 0.00 0.00 74 1014.1
20260508020103 9 360 0.0 4.8 0.00 0.00 0.00 74 1014.1
20260508014553 9 253 1.6 9.7 0.00 0.00 0.00 74 1014.2
20260508013053 10 259 4.8 11.3 0.00 0.00 0.00 72 1014.1
20260508011553 10 360 8.0 20.9 0.00 0.00 0.00 69 1014.0
20260508010053 10 277 9.7 17.7 0.00 0.00 0.00 69 1013.9
20260508004550 10 287 16.1 22.5 0.00 0.00 0.00 70 1013.7
20260508003052 10 296 24.1 41.8 0.00 0.00 0.00 64 1013.6
20260508001549 11 360 14.5 33.8 0.00 0.00 0.00 59 1013.4
20260508000049 11 360 22.5 38.6 0.00 0.00 0.00 58 1013.2
20260507234548 12 360 24.1 43.5 0.00 0.00 0.00 53 1013.0
20260507233048 12 239 4.8 16.1 0.00 0.00 0.00 58 1013.0
20260507231547 12 274 9.7 19.3 0.00 0.00 0.00 53 1013.0
20260507230045 12 272 8.0 16.1 0.00 0.00 0.00 55 1013.0
20260507224547 12 290 9.7 17.7 0.00 0.00 0.00 53 1013.0
20260507223045 13 360 17.7 25.7 0.00 0.00 0.00 53 1012.9
20260507221543 13 257 11.3 20.9 0.00 0.00 0.00 52 1013.1
20260507220043 13 250 12.9 24.1 0.00 0.00 0.00 50 1013.2
20260507214548 13 269 14.5 30.6 0.00 0.00 0.00 48 1013.1
20260507213041 13 360 19.3 35.4 0.00 0.00 0.00 53 1013.0
20260507211543 13 360 20.9 37.0 0.00 0.00 0.00 51 1013.0
20260507210039 13 290 19.3 29.0 0.00 0.00 0.00 55 1013.1
20260507204538 13 313 22.5 38.6 0.00 0.00 0.00 55 1013.1
20260507203038 12 360 30.6 40.2 0.00 0.00 0.00 54 1013.2
20260507201534 13 360 30.6 37.0 0.00 0.00 0.00 55 1013.4
20260507200035 12 360 27.4 40.2 0.00 0.00 0.00 55 1013.4
20260507194534 13 360 29.0 40.2 0.00 0.00 0.00 55 1013.4
20260507193036 13 360 33.8 45.1 0.00 0.00 0.00 56 1013.3
20260507191533 13 262 27.4 38.6 0.00 0.00 0.00 58 1013.4
20260507190033 13 360 32.2 38.6 0.00 0.00 0.00 56 1013.5